Orbital Elements at Epoch 2459200.5 (2020-Dec-17.0) TDB
Reference: JPL 4 (heliocentric ecliptic J2000)
Element | Value | Uncertainty (1-sigma) | Units |
e | .742998908824369 | 0.0026562 | |
a | 138.9703592940253 | 1.2677 | au |
q | 35.71553397963398 | 0.048106 | au |
i | 13.06914715913335 | 0.0023839 | deg |
node | 204.6454541142751 | 0.0013161 | deg |
peri | 104.6153511380551 | 0.098482 | deg |
M | 338.3436705351479 | 0.353 | deg |
tp | 2495197.312548539507 (2119-Jul-08.81254854) | 94.966 | TDB |
period | 598386.3765328397 1638.29 | 8187.5 22.42 | d yr |
n | .0006016179748040153 | 8.2317e-06 | deg/d |
Q | 242.2251846084166 | 2.2095 | au |
|
| | Orbit Determination Parameters
Additional Information
|